CZ-6A DEB

Satellite information

Favourite Embed

Satellite Type and Status

DEBRISIN ORBIT

Key statistics

Satellite CZ-6A DEB at a glance.

Uptime

1129

Days in orbit

Revolutions

≈ 14.7

Per day

Orbit

SSO

Sun Synchronous Orbit

Inclination

98.7

Latest

Satellite identification and parameters

Extended collection of information and parameters for CZ-6A DEB.

Object identification

Identified? True

Debris? True

Object name: CZ-6A DEB

International designator: 2022-151ED

Object number (NORAD): 54405

Object ID (CCSDS): 54405

Country: PEOPLES REPUBLIC OF CHINA (PRC)

Current information (Y/N): Y

RCS size: MEDIUM

Orbital parameters

Period: 98.254 minutes

Inclination: 98.6863 deg

SMA: 7053.335 km

Apoapsis: 777.294 km

Periapsis: 573.107 km

RAAN: 66.7152 deg

Eccentricy: 0.01447452

Argument of periapsis: 67.3743 deg

Mean anomaly: 294.2695 deg

Mean motion: 14.65584796 rev/day

Mean motion (dot): 0.00005937 rev/day2

B* drag term: 0.00094549437 1/REarth

Two-line elements (TLE)

Creation date: Dec. 12, 2025, 10:14 a.m.

Reference frame: TEME

Reference center: EARTH

Epoch: Dec. 12, 2025, 5:20 a.m. UTC

TLE line 0: 0 CZ-6A DEB

TLE line 1: 1 54405U 22151ED 25346.22254332 .00005937 00000-0 94549-3 0 9990

TLE line 2: 2 54405 98.6863 66.7152 0144745 67.3743 294.2695 14.65584796163914

Live tracking on map

Real-time ground track for satellite CZ-6A DEB.

In-orbit conjunctions

A list of the most updated potential collisions computed for object CZ-6A DEB.

Target Orbit TCA Probability of collision Miss distance Type
COSMOS 1680 LEO 2025-08-24 12:01:26 0.000437622 651.0 (m) PAYLOAD
THOR ABLESTAR DEB LEO 2024-09-25 17:59:53 0.00135415 209.0 (m) DEBRIS

Associated space launch

Chinese satellite reported for atmospheric/ocean/environmental/spatial parameter research purposes, details TBD.

CZ-6A DEB was lifted into orbit during the mission ‘Long March 6A | Yunhai 3’, on board a Long March 6A space rocket.

The launch took place on Nov. 11, 2022, 10:52 p.m. from Launch Complex 9A.

For more information about the launch, click the button.

Launch to space Long March 6A | Yunhai 3
Long March 6A | Yunhai 3

Agency: N/A

Status: Launch Successful

Launch date: Nov. 11, 2022, 10:52 p.m. UTC

Rocket: Long March 6A

Launch pad: Launch Complex 9A

Location: Taiyuan Satellite Launch Center, People's Republic of China

...

Latest news about this satellite

There are no fresh news available about this satellite. Check back as we update our databases every day.


Newsletter sign-up

Weekly statistics, charts and insights to help you stay on top of the space industry.